STAR ONE C4

Last updated on Fri Jul 11 2025 00:02:44 GMT+0000 (Coordinated Universal Time)

1 40733U 15034B 25191.54757072 -.00000252 00000+0 00000+0 0 9993 2 40733 0.0197 7.7831 0001852 81.0532 326.9882 1.00269602 36583
UTC large
Height (km)
Speed (km/s)
/
Latitude / Longitude
Inclination (degrees)
Orbital Period (minutes)
Azimuth
Elevation
Range (km)
Doppler Factor

Next 0 passes for location: London (51.5072 / 0.1276)

Sorry there are no passes over London.